Tracking 21611 objects as of 22-Oct-2020
HD Live streaming from Space Station
objects crossing your sky now

USA 15 DEB

Track USA 15 DEB now!
10-day predictions


NORAD ID: 16623
Int'l Code: 1986-014D
Perigee: 303.1 km
Apogee: 533.2 km
Inclination: 63.3 °
Period: 92.8 minutes
Semi major axis: 6789 km
RCS: Unknown
Launch date: February 9, 1986
Source: United States (US)
Launch site: AIR FORCE WESTERN TEST RANGE (AFWTR)

Note: This is SATELLITE DEBRIS
aabbcc
Your satellite tracking list
Your tracking list is empty




NASA's NSSDC Master Catalog

Two Line Element Set (TLE):
1 16623U 86014D   20295.18898281 +.00224621 +19805-4 +19991-2 0  9995
2 16623 063.2613 186.6995 0169464 082.5828 279.4520 15.51959946067666
Source of the keplerian elements: McCants